Peoria, IL

5:20 AM CST on December 06, 2019 (GMT -0600)
Greater Peoria Regional

Weather History for KPIA - November, 2019

Change the Weather History Date:

Saturday, November 16, 2019

  Actual Average Record
Temperature  
Mean Temperature 36 °F 42 °F  
Max Temperature 45 °F 50 °F 76 °F (1931)
Min Temperature 26 °F 33 °F 7 °F (1959)
Degree Days  
Heating Degree Days 30 23  
Month to date heating degree days 500 317  
Since 1 July heating degree days 919 763  
Cooling Degree Days 0 0  
Month to date cooling degree days 0 0  
Year to date cooling degree days 1232 1039  
Moisture  
Dew Point 27 °F    
Average Humidity 75    
Maximum Humidity 88    
Minimum Humidity 53    
Precipitation  
Precipitation 0.00 in 0.11 in 1.21 in (1928)
Month to date precipitation 0.26 1.67  
Year to date precipitation 46.76 32.61  
Snow  
Snow 0.00 in 0.00 in 0.80 in (1951)
Month to date snowfall 1.8 0.2  
Since 1 July snowfall 6.0 0.2  
Since 1 September snowfall 6.0 0.2  
Snow Depth 0.00 in    
Sea Level Pressure  
Sea Level Pressure 30.33 in    
Wind  
Wind Speed 5 mph ()    
Max Wind Speed 14 mph    
Max Gust Speed 20 mph    
Visibility 6.1 miles    
Events      
T = Trace of Precipitation, MM = Missing Value Source: Averaged Metar Reports

Daily Weather History Graph

Daily Weather History Graph

Search for Another Location

Airport or City:

Astronomy

Nov. 16, 2019 Rise Set
Actual Time 6:46 AM CST 4:40 PM CST
Civil Twilight 6:16 AM CST 5:09 PM CST
Nautical Twilight 5:43 AM CST 5:42 PM CST
Astronomical Twilight 5:11 AM CST 6:15 PM CST
Moon 8:12 PM CST (11/16) 10:40 AM CST (11/16)
Length of Visible Light 10h 52m
Length of Day
9h 53m
Waning Gibbous, 82% of the Moon is Illuminated
Nov 16
Waning Gibbous
Nov 19
Last Quarter
Nov 26
New
Dec 4
First Quarter
Dec 11
Full

Hourly Weather History & Observations

Time (CST) Temp. Windchill Dew Point Humidity Pressure Visibility Wind Dir Wind Speed Gust Speed Precip Events Conditions
12:54 AM 28.0 °F 21.7 °F 24.1 °F 85% 30.40 in 6.0 mi ENE 5.8 mph - N/A   Clear
1:54 AM 30.0 °F 23.2 °F 25.0 °F 82% 30.41 in 6.0 mi East 6.9 mph - N/A   Haze
2:54 AM 30.0 °F 23.2 °F 26.1 °F 85% 30.40 in 5.0 mi East 6.9 mph - N/A   Clear
3:54 AM 28.9 °F 25.2 °F 25.0 °F 85% 30.40 in 5.0 mi ENE 3.5 mph - N/A   Clear
4:54 AM 28.0 °F - 24.1 °F 85% 30.41 in 3.0 mi Calm Calm - N/A   Clear
5:54 AM 28.0 °F 24.2 °F 25.0 °F 88% 30.41 in 4.0 mi East 3.5 mph - N/A   Clear
6:54 AM 26.1 °F 21.9 °F 23.0 °F 88% 30.42 in 4.0 mi ENE 3.5 mph - N/A   Clear
7:54 AM 30.0 °F 26.5 °F 26.1 °F 85% 30.42 in 4.0 mi East 3.5 mph - N/A   Clear
8:54 AM 35.1 °F 31.0 °F 28.0 °F 76% 30.42 in 5.0 mi ESE 4.6 mph - N/A   Haze
9:54 AM 37.9 °F 30.5 °F 28.0 °F 68% 30.40 in 7.0 mi ESE 11.5 mph - N/A   Clear
10:54 AM 39.9 °F 33.9 °F 28.9 °F 65% 30.38 in 7.0 mi SE 9.2 mph - N/A   Clear
11:54 AM 41.0 °F 36.4 °F 30.0 °F 65% 30.35 in 7.0 mi SSE 6.9 mph - N/A   Unknown
12:54 PM 42.1 °F 38.4 °F 30.0 °F 62% 30.32 in 6.0 mi East 5.8 mph - N/A   Haze
1:54 PM 44.1 °F 40.8 °F 28.9 °F 55% 30.29 in 8.0 mi East 5.8 mph - N/A   Clear
3:54 PM 44.1 °F 40.1 °F 30.0 °F 58% 30.25 in 8.0 mi East 6.9 mph - N/A   Clear
5:54 PM 37.9 °F 32.7 °F 28.9 °F 70% 30.25 in 7.0 mi ESE 6.9 mph - N/A   Clear
6:54 PM 37.0 °F 33.3 °F 28.9 °F 73% 30.25 in 7.0 mi East 4.6 mph - N/A   Clear
7:54 PM 35.1 °F 30.1 °F 28.9 °F 78% 30.22 in 6.0 mi East 5.8 mph - N/A   Haze
8:54 PM 34.0 °F 29.8 °F 28.0 °F 79% 30.22 in 5.0 mi ESE 4.6 mph - N/A   Haze
9:54 PM 35.1 °F 29.3 °F 28.0 °F 76% 30.21 in 7.0 mi ESE 6.9 mph - N/A   Clear
10:54 PM 34.0 °F 26.6 °F 27.0 °F 75% 30.20 in 9.0 mi SSE 9.2 mph - N/A   Clear
11:54 PM 33.1 °F 27.7 °F 27.0 °F 78% 30.19 in 8.0 mi ESE 5.8 mph - N/A   Clear